Temperature
28 25 24 25 25 26 27 28 28 29 29 28 27 27 26 26 25 25 24 23 23 23 23 23 23 23 22 22 21 21 21 20 20 20 19 19 19 19 18 18 18 18 18 18
25 24 26 27 28 28 28 28 28 29 30 28 27 26 26 25 25 25 24 23 24 23 23 23 23 23 22 22 21 21 21 20 20 20 19 19 19 18 18 18 18 18 18 18
25 26 28 29 29 29 28 28 28 28 28 28 27 25 25 25 25 25 24 24 24 24 23 23 23 23 22 22 22 21 21 20 20 20 19 19 18 18 18 18 18 18 18 18
25 27 29 29 29 29 28 29 29 29 26 25 26 24 24 24 24 24 24 24 24 23 23 23 23 22 22 22 21 21 21 20 20 20 19 19 19 19 18 18 18 18 18 18
25 28 28 29 29 30 29 30 29 28 26 24 24 24 23 23 23 23 24 24 24 24 24 23 23 23 22 22 21 21 21 20 20 20 19 19 19 19 18 18 18 18 18 18
26 28 29 29 30 30 30 28 25 23 22 23 24 24 23 23 24 24 24 24 24 24 23 23 23 22 22 22 21 21 21 20 20 20 19 19 19 19 18 18 18 18 18 18
26 27 28 30 29 29 28 24 23 24 21 22 23 24 23 24 25 25 24 24 24 24 23 23 23 22 22 22 21 21 21 20 20 20 19 19 19 19 18 18 18 18 18 18
25 24 27 29 28 27 27 23 22 24 23 22 23 24 24 25 26 26 25 25 24 24 24 23 23 23 22 22 22 21 21 20 20 20 19 19 19 19 18 18 18 18 18 18
23 24 27 29 29 28 28 25 22 21 23 22 23 24 24 25 24 24 24 24 24 24 24 24 23 23 22 22 22 21 21 20 20 20 19 19 19 18 18 18 18 18 18 18
24 24 26 28 29 28 27 25 21 22 22 22 23 24 23 24 24 24 23 24 24 24 24 24 23 23 23 22 22 21 21 20 20 20 19 19 19 18 18 18 18 18 17 17
24 24 24 26 27 27 27 27 22 20 20 21 22 23 24 23 24 24 24 24 25 25 24 24 24 23 23 22 22 21 21 20 20 20 19 19 19 19 18 18 18 18 17 17
23 22 22 24 26 27 27 26 22 23 22 20 21 22 25 24 24 24 25 25 25 25 25 24 24 23 23 22 21 21 21 21 20 20 19 19 19 19 18 18 18 17 17 17
23 21 22 23 24 26 27 26 23 21 20 20 21 24 24 24 24 25 25 25 25 25 25 24 23 23 23 22 21 21 21 20 20 20 19 19 19 18 18 18 18 17 17 17
23 20 21 23 23 25 26 26 25 22 21 22 22 24 24 24 24 24 25 25 25 25 25 24 23 23 23 22 22 21 21 20 20 20 19 19 19 18 18 18 17 17 17 17
22 22 22 23 24 26 27 27 26 25 23 23 23 24 24 24 24 25 25 25 25 24 24 24 24 23 23 22 21 21 21 20 20 20 19 19 19 18 18 17 17 17 17 17
19 22 23 24 25 25 26 26 27 26 26 25 25 24 23 24 25 25 25 24 24 24 24 24 24 23 23 22 22 21 21 20 20 19 19 19 18 18 17 17 17 17 17 17
19 20 20 21 23 24 24 25 26 26 25 25 24 24 23 23 23 24 24 24 24 24 24 24 24 23 23 22 22 21 21 20 19 19 19 18 18 18 17 17 17 17 17 16
19 18 17 19 23 23 22 24 25 25 24 23 24 23 23 24 25 26 26 26 25 25 25 25 24 23 23 22 22 21 20 20 19 19 19 18 18 17 17 17 17 17 16 16
18 19 18 18 20 21 23 24 25 24 23 22 22 23 23 24 24 24 25 26 26 26 26 25 24 24 23 22 21 21 20 19 19 19 19 18 18 17 17 17 17 16 16 16
18 17 18 18 20 21 21 23 25 23 22 22 22 21 22 23 21 22 25 25 26 26 25 25 24 23 23 22 21 21 20 19 19 19 18 18 18 17 17 17 16 16 16 15
19 18 18 18 19 19 21 23 23 22 21 21 22 22 23 22 22 23 24 25 25 25 24 24 23 23 22 22 21 20 20 19 19 19 18 18 17 17 17 16 16 16 15 15
18 17 17 16 18 19 20 21 20 19 21 21 22 22 22 22 23 23 23 24 24 24 23 23 22 22 22 21 20 20 19 19 18 18 17 17 17 16 16 16 15 15 15 15
16 16 15 16 17 18 19 19 20 21 21 21 21 22 22 22 22 22 22 22 23 22 22 21 21 21 20 20 20 19 19 18 18 17 17 17 16 16 16 15 15 15 15 14
16 16 15 15 16 17 19 20 20 20 20 21 21 22 22 22 21 21 21 21 21 21 21 21 20 20 20 19 19 19 18 18 17 17 16 16 16 15 15 15 15 14 14 14
16 15 15 15 15 17 18 18 19 19 20 20 21 21 21 21 21 21 21 20 20 20 20 20 20 19 19 18 18 18 17 17 17 16 16 15 15 15 15 14 14 14 14 14
15 15 15 14 15 15 16 18 18 19 19 19 20 20 20 20 20 20 19 20 19 19 19 19 19 18 18 18 17 17 17 16 16 16 16 15 15 14 14 14 14 13 13 13
Wind_Speed
2 2 5 9 8 9 6 4 5 5 2 4 5 6 8 9 11 11 10 10 9 9 7 9 11 12 12 11 11 11 11 9 7 4 4 3 3 3 3 4 7 9 9 9
4 6 12 10 8 5 3 3 4 4 1 3 3 1 3 7 11 14 15 14 13 10 8 10 10 11 12 11 10 10 11 10 8 6 5 4 3 3 3 3 5 8 9 8
8 9 7 6 7 5 5 2 4 3 3 6 5 4 2 2 4 7 11 12 14 15 14 12 12 11 11 11 12 11 10 9 8 7 4 3 2 1 2 2 3 5 8 8
8 10 8 7 6 3 5 5 2 1 5 3 2 1 5 3 2 6 8 10 11 12 12 11 11 11 11 11 10 10 10 9 8 8 7 7 5 4 4 4 4 4 6 7
7 5 5 7 8 4 6 3 1 2 4 3 4 3 6 0 3 6 9 11 11 11 12 12 12 11 11 10 10 9 9 8 8 8 8 7 5 4 3 3 4 4 3 5
9 7 5 7 6 4 2 5 9 7 6 2 3 3 5 4 7 8 8 9 10 11 11 9 8 8 7 8 9 8 9 8 8 8 7 7 7 5 4 4 4 4 3 3
8 9 7 4 4 5 5 7 5 6 5 4 3 2 7 7 7 10 11 11 11 11 11 11 10 10 10 10 10 9 10 8 8 8 7 7 7 7 7 6 5 4 3 3
4 8 7 5 8 6 4 10 8 4 4 5 4 2 6 5 3 6 10 12 12 11 10 11 12 12 11 11 11 10 10 8 8 8 7 6 6 5 4 5 5 5 4 4
7 8 8 7 6 9 5 5 10 8 2 0 4 4 6 2 6 7 9 11 12 12 12 12 11 11 10 10 10 11 10 8 8 8 7 6 6 5 5 4 4 3 3 3
9 6 9 7 1 4 9 8 7 6 4 2 4 4 5 5 7 8 10 11 11 10 11 11 10 10 9 9 9 9 10 9 8 8 7 6 5 5 5 4 4 4 3 3
10 7 8 5 2 6 3 4 6 6 6 6 3 7 8 11 11 11 11 12 12 12 12 12 11 10 9 9 9 9 9 8 7 7 6 5 5 5 4 4 4 4 3 3
9 7 7 9 7 6 7 8 9 6 5 6 5 8 7 9 10 11 12 11 10 11 11 11 11 10 10 10 9 9 8 8 7 7 6 6 5 5 5 4 3 3 3 2
8 7 3 8 8 4 2 4 7 7 6 6 5 7 4 3 6 9 11 11 10 10 10 9 10 11 11 10 9 9 8 8 7 7 7 6 5 5 5 4 4 4 3 2
7 6 8 10 8 3 2 3 2 7 5 6 8 8 5 5 7 8 9 11 11 11 11 10 10 10 10 10 10 9 8 8 8 8 7 6 5 5 5 4 4 4 4 3
6 5 5 6 5 2 1 4 3 3 8 9 10 11 12 12 12 12 11 11 13 12 12 12 11 10 10 10 9 9 9 8 8 8 7 6 5 5 5 5 4 4 4 4
4 4 3 1 2 2 3 5 5 4 3 5 5 8 9 8 7 9 12 15 14 14 13 12 12 11 12 12 11 10 9 9 8 8 7 6 6 6 5 5 5 5 5 4
3 4 4 0 3 5 3 4 3 4 4 3 6 8 5 5 9 13 14 15 15 16 15 14 13 13 12 12 11 11 10 9 9 8 7 7 6 6 5 5 5 5 4 5
4 4 4 2 3 4 9 5 1 0 4 3 1 3 8 9 9 8 10 14 14 14 14 14 13 12 10 9 9 10 9 9 9 8 7 7 6 6 5 6 6 5 4 4
5 6 4 4 3 5 7 5 2 1 4 6 2 2 2 3 4 2 3 9 13 14 12 11 11 11 11 11 11 11 10 8 8 8 7 7 7 7 6 6 5 5 5 4
5 6 5 4 4 5 6 6 4 4 2 6 3 3 3 5 4 3 3 4 6 8 9 10 11 11 11 11 12 12 10 9 8 8 7 7 7 7 7 6 5 4 5 4
3 3 4 4 4 6 6 6 5 2 5 5 2 2 3 3 4 3 2 4 6 7 9 11 12 11 10 11 12 11 9 8 8 7 7 7 7 7 7 6 4 5 5 5
4 3 4 5 4 7 6 4 2 4 3 2 3 4 4 4 4 5 5 6 7 8 9 10 10 9 8 10 11 10 8 7 7 8 7 7 7 7 6 7 5 5 6 6
1 5 5 6 6 4 2 2 1 2 2 2 2 3 5 6 5 5 5 6 7 9 8 8 10 9 8 8 9 10 7 8 8 8 8 7 7 6 6 6 6 5 5 4
5 3 2 3 3 3 5 6 7 5 3 3 4 5 6 6 6 6 6 6 7 7 8 8 9 9 8 7 7 7 7 8 9 9 8 7 7 6 5 4 4 5 4 4
5 4 3 2 2 5 9 8 7 7 7 7 7 6 5 7 6 6 6 6 6 6 5 7 9 9 8 8 7 7 7 8 8 8 7 7 6 7 6 4 3 3 2 3
2 1 2 2 2 1 3 4 6 7 6 6 7 7 6 6 6 6 5 5 5 5 5 7 7 8 7 7 7 5 6 8 9 7 7 6 6 6 6 6 4 6 4 3
Wind_Direction
306 75 246 243 225 217 240 271 291 281 227 109 144 170 176 167 165 163 162 170 178 187 179 162 160 158 157 160 161 163 163 169 158 152 148 145 170 179 179 183 186 179 176 181
1 266 243 243 256 253 262 295 306 310 347 112 143 148 179 169 181 177 171 172 173 171 169 166 161 163 165 167 168 164 168 171 170 170 163 164 170 181 182 180 190 190 183 186
225 248 263 260 268 290 294 254 264 278 7 40 81 3 311 236 194 176 172 173 172 174 177 173 169 170 167 171 174 173 171 172 175 169 151 144 118 105 147 184 198 205 198 196
248 254 265 268 267 241 277 264 259 34 61 338 83 225 286 228 206 185 175 175 176 176 175 173 173 172 174 178 173 168 167 170 172 168 165 171 178 187 195 187 196 210 206 200
264 276 274 257 249 220 232 259 20 63 99 32 12 110 289 37 185 207 188 180 182 176 175 177 179 176 174 173 170 169 163 168 171 172 173 178 185 186 177 171 190 209 217 205
262 277 252 239 255 228 218 38 28 42 66 28 283 135 276 232 201 197 190 179 179 177 173 172 171 159 164 165 165 166 166 172 174 173 175 181 183 181 177 184 194 206 212 213
304 300 283 261 283 335 73 78 27 359 9 260 278 157 254 252 205 183 176 171 173 168 163 164 166 167 174 170 169 170 171 174 175 174 181 183 183 183 190 192 194 194 200 211
236 282 269 231 192 194 160 135 155 194 225 277 331 233 265 258 184 155 162 165 167 167 168 172 175 174 177 175 172 171 174 176 175 177 182 182 182 186 195 196 193 193 200 210
201 253 281 260 210 162 160 171 169 144 167 331 294 286 318 57 118 140 156 163 170 173 173 174 174 172 174 174 174 172 173 174 176 178 179 183 184 186 192 194 190 188 193 200
183 251 285 292 266 199 166 155 97 113 154 241 288 250 220 202 175 172 171 173 175 173 168 167 169 173 173 172 170 168 171 175 177 180 184 186 184 183 177 170 174 181 190 194
179 206 286 341 221 207 173 139 121 128 150 154 224 263 226 198 190 180 181 179 176 174 170 167 170 172 166 160 161 164 167 168 172 176 173 168 169 168 163 169 179 179 180 174
182 167 244 261 259 218 182 180 150 157 207 162 169 262 264 200 191 176 174 174 174 172 170 169 167 161 160 162 162 164 165 166 168 164 157 161 159 155 159 167 171 165 160 161
161 144 208 317 329 343 192 179 160 145 135 154 166 258 293 163 177 176 170 170 166 164 165 163 161 162 164 163 161 162 162 160 155 150 149 150 153 154 161 165 156 150 144 137
137 128 170 202 217 233 299 289 157 129 157 202 207 221 249 196 185 183 177 168 162 165 165 165 166 165 163 160 160 159 158 155 150 147 148 153 162 161 159 155 148 145 139 134
111 141 168 193 201 168 272 297 286 195 189 191 221 203 214 204 194 184 174 169 163 166 169 170 171 168 161 159 159 158 155 153 150 148 152 159 154 145 145 143 138 128 121 120
67 123 114 41 26 41 331 304 305 281 227 210 213 229 231 208 179 169 170 171 170 171 175 175 170 166 164 164 163 158 155 156 151 152 155 150 138 135 135 134 128 119 113 104
41 99 102 278 2 42 301 264 280 293 292 200 214 233 217 175 180 181 177 174 174 174 175 175 174 171 169 166 160 156 156 150 148 149 147 144 139 138 142 138 123 121 120 113
110 88 113 113 74 223 245 262 259 351 350 336 247 206 183 186 192 184 174 170 173 175 174 173 171 165 159 153 147 145 143 144 145 144 145 144 140 139 134 129 128 123 118 117
133 125 105 114 160 272 296 316 349 86 353 352 40 88 147 143 92 28 198 173 176 177 172 166 162 155 150 150 147 139 140 143 145 151 153 152 146 144 140 138 140 133 124 116
82 101 114 125 157 220 253 296 311 90 351 331 30 74 91 98 122 238 240 171 163 157 152 147 143 137 144 148 142 139 145 148 155 159 156 152 149 148 149 147 141 135 129 129
34 64 134 161 202 251 271 312 22 97 240 303 24 68 104 132 183 205 135 126 134 131 137 140 140 143 148 145 140 142 147 156 155 146 142 144 145 144 144 141 138 138 136 129
186 175 188 160 189 253 305 23 105 212 242 332 45 66 79 85 87 86 95 105 111 116 120 128 132 134 136 140 140 142 150 149 141 139 137 138 141 145 145 142 142 140 140 136
157 192 191 183 203 247 345 105 190 151 79 31 52 85 102 91 82 89 89 94 102 110 115 119 124 124 125 134 140 143 147 141 137 136 137 137 135 132 141 146 147 141 140 144
320 356 78 59 26 11 27 37 23 20 40 55 81 93 99 99 98 97 96 94 97 103 114 121 124 126 129 129 130 137 142 141 137 139 141 141 136 131 126 129 139 147 155 160
298 3 41 56 348 16 14 16 11 12 27 43 51 57 87 108 106 105 103 104 103 104 111 124 129 133 133 130 127 129 135 137 138 142 143 141 137 135 123 109 97 133 148 180
294 159 130 207 237 161 290 334 11 26 31 38 59 50 55 91 106 104 104 105 109 115 116 118 118 123 125 123 119 128 141 142 142 145 148 148 144 140 138 133 101 56 71 79
Height
1513 1519 1524 1519 1516 1517 1517 1518 1518 1509 1501 1505 1510 1512 1510 1512 1514 1516 1518 1521 1525 1526 1529 1531 1533 1535 1537 1539 1540 1542 1544 1546 1548 1550 1552 1553 1555 1557 1558 1559 1561 1562 1563 1564
1519 1522 1511 1509 1508 1510 1512 1518 1517 1509 1501 1506 1512 1513 1511 1511 1512 1512 1514 1517 1519 1523 1528 1529 1531 1533 1535 1537 1539 1540 1542 1544 1546 1548 1550 1552 1554 1556 1557 1558 1559 1561 1562 1563
1521 1513 1504 1506 1507 1510 1512 1515 1514 1513 1507 1507 1514 1523 1517 1512 1512 1513 1514 1515 1517 1520 1524 1527 1528 1530 1533 1535 1537 1538 1540 1542 1545 1547 1549 1551 1553 1554 1556 1556 1558 1559 1560 1561
1513 1505 1504 1505 1506 1507 1516 1504 1505 1508 1519 1529 1522 1542 1525 1515 1514 1513 1514 1515 1517 1519 1521 1524 1527 1529 1531 1533 1536 1538 1539 1541 1543 1545 1547 1549 1550 1551 1553 1554 1555 1557 1558 1559
1512 1503 1504 1506 1502 1500 1504 1499 1503 1507 1519 1530 1528 1538 1532 1517 1518 1514 1512 1514 1515 1518 1520 1523 1525 1528 1530 1532 1534 1536 1538 1539 1541 1543 1545 1546 1548 1550 1551 1552 1553 1554 1556 1557
1505 1499 1499 1498 1494 1494 1495 1502 1510 1520 1530 1545 1533 1538 1537 1522 1514 1511 1510 1512 1514 1516 1519 1522 1524 1528 1530 1531 1533 1535 1536 1537 1539 1541 1543 1545 1546 1548 1549 1550 1551 1552 1553 1554
1510 1500 1495 1494 1498 1496 1501 1524 1547 1548 1558 1552 1534 1535 1533 1510 1504 1504 1506 1510 1512 1515 1517 1520 1523 1525 1527 1529 1531 1533 1534 1536 1537 1539 1541 1543 1544 1546 1547 1548 1549 1550 1550 1551
1522 1520 1497 1491 1496 1502 1505 1521 1549 1558 1560 1552 1536 1536 1521 1502 1500 1502 1504 1507 1510 1513 1516 1519 1521 1523 1526 1528 1530 1531 1533 1534 1536 1537 1539 1541 1542 1544 1545 1546 1546 1547 1548 1548
1520 1517 1492 1488 1487 1493 1504 1515 1519 1539 1544 1552 1544 1529 1514 1503 1504 1505 1506 1508 1509 1511 1514 1517 1520 1523 1525 1527 1528 1530 1531 1533 1535 1536 1538 1539 1540 1541 1542 1543 1544 1545 1545 1546
1504 1513 1497 1488 1485 1487 1492 1502 1524 1538 1554 1559 1546 1536 1529 1513 1508 1506 1507 1507 1509 1511 1513 1516 1519 1521 1524 1526 1527 1529 1531 1532 1533 1535 1536 1537 1538 1539 1540 1541 1542 1542 1543 1543
1496 1510 1505 1496 1495 1498 1497 1503 1517 1534 1540 1555 1556 1541 1506 1504 1502 1503 1504 1505 1507 1509 1512 1514 1517 1520 1523 1525 1526 1528 1529 1531 1532 1533 1535 1536 1537 1538 1538 1539 1539 1540 1540 1541
1490 1505 1514 1503 1489 1484 1489 1497 1512 1530 1535 1541 1547 1535 1494 1495 1495 1498 1501 1503 1506 1508 1510 1513 1515 1518 1521 1523 1525 1527 1528 1530 1531 1532 1534 1535 1535 1536 1536 1537 1537 1538 1538 1539
1485 1503 1520 1517 1506 1492 1491 1492 1500 1512 1526 1537 1542 1527 1493 1493 1494 1496 1498 1501 1504 1507 1510 1512 1515 1517 1519 1522 1524 1526 1528 1529 1530 1532 1533 1533 1534 1534 1535 1535 1536 1536 1537 1537
1476 1497 1510 1519 1513 1498 1496 1493 1494 1509 1525 1528 1524 1513 1498 1495 1494 1495 1496 1499 1502 1505 1508 1511 1513 1515 1518 1520 1523 1525 1526 1528 1529 1530 1531 1532 1532 1533 1533 1533 1534 1535 1535 1536
1476 1493 1494 1495 1491 1489 1490 1491 1491 1498 1505 1513 1508 1503 1495 1489 1488 1489 1493 1496 1499 1502 1505 1508 1511 1513 1516 1519 1521 1523 1525 1527 1528 1529 1530 1531 1531 1532 1532 1532 1533 1534 1534 1535
1480 1489 1491 1493 1488 1487 1490 1488 1488 1489 1491 1495 1495 1494 1483 1482 1485 1487 1490 1493 1496 1498 1502 1505 1508 1511 1514 1516 1519 1521 1524 1526 1527 1528 1529 1530 1530 1531 1531 1532 1532 1533 1533 1534
1486 1491 1501 1505 1493 1492 1501 1490 1488 1488 1486 1488 1494 1489 1481 1483 1483 1484 1487 1489 1492 1495 1498 1502 1506 1509 1512 1515 1517 1520 1522 1524 1526 1527 1528 1529 1529 1530 1531 1532 1532 1533 1533 1533
1487 1495 1505 1507 1502 1513 1500 1482 1481 1484 1485 1482 1480 1478 1477 1478 1479 1481 1483 1485 1489 1492 1495 1498 1502 1506 1510 1513 1516 1519 1521 1523 1524 1525 1527 1528 1529 1529 1530 1531 1531 1532 1532 1532
1481 1491 1504 1514 1515 1508 1492 1481 1481 1485 1489 1482 1480 1478 1477 1478 1480 1483 1484 1485 1486 1489 1492 1496 1500 1503 1507 1510 1513 1516 1519 1521 1523 1524 1525 1526 1527 1528 1529 1529 1530 1531 1531 1531
1482 1487 1502 1510 1513 1515 1497 1481 1477 1481 1493 1483 1479 1478 1478 1478 1487 1486 1483 1484 1486 1488 1491 1494 1498 1502 1505 1508 1511 1514 1516 1518 1520 1521 1523 1524 1525 1527 1527 1528 1529 1529 1530 1530
1493 1497 1503 1508 1511 1503 1487 1480 1478 1497 1497 1484 1480 1478 1478 1479 1482 1482 1482 1484 1485 1487 1490 1493 1496 1499 1502 1505 1508 1511 1513 1515 1518 1520 1521 1522 1524 1525 1526 1527 1527 1528 1529 1529
1496 1502 1504 1508 1512 1508 1484 1482 1488 1490 1484 1483 1480 1478 1478 1479 1480 1480 1481 1483 1484 1487 1490 1492 1495 1498 1501 1504 1507 1509 1511 1514 1516 1518 1519 1520 1522 1523 1524 1525 1526 1526 1527 1528
1493 1495 1496 1498 1500 1490 1485 1485 1485 1484 1483 1483 1482 1480 1480 1480 1481 1482 1483 1483 1485 1487 1490 1493 1496 1498 1501 1504 1506 1508 1510 1512 1514 1516 1517 1518 1520 1521 1522 1523 1524 1524 1525 1526
1490 1487 1490 1493 1492 1489 1487 1486 1486 1486 1484 1483 1482 1481 1482 1483 1484 1484 1484 1485 1486 1488 1491 1493 1496 1498 1500 1502 1505 1506 1508 1510 1512 1513 1515 1516 1517 1519 1520 1521 1522 1522 1523 1524
1493 1490 1492 1494 1492 1489 1489 1489 1489 1487 1486 1484 1483 1483 1483 1483 1485 1486 1486 1487 1488 1489 1491 1493 1495 1497 1499 1501 1503 1505 1507 1509 1510 1512 1513 1514 1515 1516 1518 1519 1520 1520 1521 1522
1492 1492 1494 1496 1493 1493 1492 1491 1490 1488 1488 1486 1484 1484 1485 1485 1486 1487 1488 1488 1489 1491 1492 1494 1495 1497 1498 1499 1501 1503 1505 1506 1508 1509 1511 1512 1513 1514 1516 1516 1517 1518 1519 1519